locationName,lineName,date,time,countIn,countOut
�n����ʂ�,3_1_3,2022/6/1,0:00,0,2
�n����ʂ�,3_1_3,2022/6/1,1:00,3,0
�n����ʂ�,3_1_3,2022/6/1,2:00,0,1
�n����ʂ�,3_1_3,2022/6/1,3:00,2,1
�n����ʂ�,3_1_3,2022/6/1,4:00,7,5
�n����ʂ�,3_1_3,2022/6/1,5:00,30,27
�n����ʂ�,3_1_3,2022/6/1,6:00,40,55
�n����ʂ�,3_1_3,2022/6/1,7:00,106,444
�n����ʂ�,3_1_3,2022/6/1,8:00,119,317
�n����ʂ�,3_1_3,2022/6/1,9:00,151,143
�n����ʂ�,3_1_3,2022/6/1,10:00,173,164
�n����ʂ�,3_1_3,2022/6/1,11:00,179,150
�n����ʂ�,3_1_3,2022/6/1,12:00,217,177
�n����ʂ�,3_1_3,2022/6/1,13:00,165,154
�n����ʂ�,3_1_3,2022/6/1,14:00,156,129
�n����ʂ�,3_1_3,2022/6/1,15:00,247,122
�n����ʂ�,3_1_3,2022/6/1,16:00,478,143
�n����ʂ�,3_1_3,2022/6/1,17:00,263,127
�n����ʂ�,3_1_3,2022/6/1,18:00,184,125
�n����ʂ�,3_1_3,2022/6/1,19:00,70,101
�n����ʂ�,3_1_3,2022/6/1,20:00,41,8
�n����ʂ�,3_1_3,2022/6/1,21:00,21,4
�n����ʂ�,3_1_3,2022/6/1,22:00,9,0
�n����ʂ�,3_1_3,2022/6/1,23:00,6,0
�n����ʂ�,3_1_3,2022/6/2,0:00,1,0
�n����ʂ�,3_1_3,2022/6/2,1:00,5,1
�n����ʂ�,3_1_3,2022/6/2,2:00,0,2
�n����ʂ�,3_1_3,2022/6/2,3:00,1,1
�n����ʂ�,3_1_3,2022/6/2,4:00,5,8
�n����ʂ�,3_1_3,2022/6/2,5:00,31,30
�n����ʂ�,3_1_3,2022/6/2,6:00,37,61
�n����ʂ�,3_1_3,2022/6/2,7:00,108,427
�n����ʂ�,3_1_3,2022/6/2,8:00,105,332
�n����ʂ�,3_1_3,2022/6/2,9:00,156,111
�n����ʂ�,3_1_3,2022/6/2,10:00,148,168
�n����ʂ�,3_1_3,2022/6/2,11:00,136,141
�n����ʂ�,3_1_3,2022/6/2,12:00,184,135
�n����ʂ�,3_1_3,2022/6/2,13:00,148,127
�n����ʂ�,3_1_3,2022/6/2,14:00,123,109
�n����ʂ�,3_1_3,2022/6/2,15:00,122,76
�n����ʂ�,3_1_3,2022/6/2,16:00,233,107
�n����ʂ�,3_1_3,2022/6/2,17:00,295,107
�n����ʂ�,3_1_3,2022/6/2,18:00,363,104
�n����ʂ�,3_1_3,2022/6/2,19:00,89,64
�n����ʂ�,3_1_3,2022/6/2,20:00,34,7
�n����ʂ�,3_1_3,2022/6/2,21:00,22,3
�n����ʂ�,3_1_3,2022/6/2,22:00,14,3
�n����ʂ�,3_1_3,2022/6/2,23:00,16,3
�n����ʂ�,3_1_3,2022/6/3,0:00,3,2
�n����ʂ�,3_1_3,2022/6/3,1:00,3,0
�n����ʂ�,3_1_3,2022/6/3,2:00,1,1
�n����ʂ�,3_1_3,2022/6/3,3:00,2,1
�n����ʂ�,3_1_3,2022/6/3,4:00,3,5
�n����ʂ�,3_1_3,2022/6/3,5:00,27,29
�n����ʂ�,3_1_3,2022/6/3,6:00,43,62
�n����ʂ�,3_1_3,2022/6/3,7:00,84,492
�n����ʂ�,3_1_3,2022/6/3,8:00,121,285
�n����ʂ�,3_1_3,2022/6/3,9:00,153,164
�n����ʂ�,3_1_3,2022/6/3,10:00,220,179
�n����ʂ�,3_1_3,2022/6/3,11:00,199,167
�n����ʂ�,3_1_3,2022/6/3,12:00,181,174
�n����ʂ�,3_1_3,2022/6/3,13:00,173,179
�n����ʂ�,3_1_3,2022/6/3,14:00,148,126
�n����ʂ�,3_1_3,2022/6/3,15:00,188,109
�n����ʂ�,3_1_3,2022/6/3,16:00,234,103
�n����ʂ�,3_1_3,2022/6/3,17:00,276,92
�n����ʂ�,3_1_3,2022/6/3,18:00,367,113
�n����ʂ�,3_1_3,2022/6/3,19:00,97,92
�n����ʂ�,3_1_3,2022/6/3,20:00,66,38
�n����ʂ�,3_1_3,2022/6/3,21:00,30,9
�n����ʂ�,3_1_3,2022/6/3,22:00,16,7
�n����ʂ�,3_1_3,2022/6/3,23:00,5,10
�n����ʂ�,3_1_3,2022/6/4,0:00,6,3
�n����ʂ�,3_1_3,2022/6/4,1:00,3,1
�n����ʂ�,3_1_3,2022/6/4,2:00,3,1
�n����ʂ�,3_1_3,2022/6/4,3:00,2,1
�n����ʂ�,3_1_3,2022/6/4,4:00,5,3
�n����ʂ�,3_1_3,2022/6/4,5:00,26,33
�n����ʂ�,3_1_3,2022/6/4,6:00,56,52
�n����ʂ�,3_1_3,2022/6/4,7:00,58,200
�n����ʂ�,3_1_3,2022/6/4,8:00,77,136
�n����ʂ�,3_1_3,2022/6/4,9:00,135,162
�n����ʂ�,3_1_3,2022/6/4,10:00,199,254
�n����ʂ�,3_1_3,2022/6/4,11:00,283,243
�n����ʂ�,3_1_3,2022/6/4,12:00,267,329
�n����ʂ�,3_1_3,2022/6/4,13:00,392,278
�n����ʂ�,3_1_3,2022/6/4,14:00,307,304
�n����ʂ�,3_1_3,2022/6/4,15:00,422,297
�n����ʂ�,3_1_3,2022/6/4,16:00,356,227
�n����ʂ�,3_1_3,2022/6/4,17:00,259,213
�n����ʂ�,3_1_3,2022/6/4,18:00,188,173
�n����ʂ�,3_1_3,2022/6/4,19:00,103,108
�n����ʂ�,3_1_3,2022/6/4,20:00,56,9
�n����ʂ�,3_1_3,2022/6/4,21:00,25,3
�n����ʂ�,3_1_3,2022/6/4,22:00,12,7
�n����ʂ�,3_1_3,2022/6/4,23:00,17,4
�n����ʂ�,3_1_3,2022/6/5,0:00,5,1
�n����ʂ�,3_1_3,2022/6/5,1:00,1,1
�n����ʂ�,3_1_3,2022/6/5,2:00,6,1
�n����ʂ�,3_1_3,2022/6/5,3:00,3,1
�n����ʂ�,3_1_3,2022/6/5,4:00,8,2
�n����ʂ�,3_1_3,2022/6/5,5:00,18,27
�n����ʂ�,3_1_3,2022/6/5,6:00,31,30
�n����ʂ�,3_1_3,2022/6/5,7:00,43,64
�n����ʂ�,3_1_3,2022/6/5,8:00,79,91
�n����ʂ�,3_1_3,2022/6/5,9:00,105,104
�n����ʂ�,3_1_3,2022/6/5,10:00,260,299
�n����ʂ�,3_1_3,2022/6/5,11:00,373,371
�n����ʂ�,3_1_3,2022/6/5,12:00,386,379
�n����ʂ�,3_1_3,2022/6/5,13:00,422,403
�n����ʂ�,3_1_3,2022/6/5,14:00,286,276
�n����ʂ�,3_1_3,2022/6/5,15:00,222,167
�n����ʂ�,3_1_3,2022/6/5,16:00,149,150
�n����ʂ�,3_1_3,2022/6/5,17:00,110,109
�n����ʂ�,3_1_3,2022/6/5,18:00,60,68
�n����ʂ�,3_1_3,2022/6/5,19:00,28,33
�n����ʂ�,3_1_3,2022/6/5,20:00,6,2
�n����ʂ�,3_1_3,2022/6/5,21:00,3,8
�n����ʂ�,3_1_3,2022/6/5,22:00,2,2
�n����ʂ�,3_1_3,2022/6/5,23:00,5,2
�n����ʂ�,3_1_3,2022/6/6,0:00,0,3
�n����ʂ�,3_1_3,2022/6/6,1:00,0,1
�n����ʂ�,3_1_3,2022/6/6,2:00,0,2
�n����ʂ�,3_1_3,2022/6/6,3:00,3,6
�n����ʂ�,3_1_3,2022/6/6,4:00,5,5
�n����ʂ�,3_1_3,2022/6/6,5:00,21,14
�n����ʂ�,3_1_3,2022/6/6,6:00,36,51
�n����ʂ�,3_1_3,2022/6/6,7:00,51,175
�n����ʂ�,3_1_3,2022/6/6,8:00,60,175
�n����ʂ�,3_1_3,2022/6/6,9:00,101,101
�n����ʂ�,3_1_3,2022/6/6,10:00,114,139
�n����ʂ�,3_1_3,2022/6/6,11:00,142,114
�n����ʂ�,3_1_3,2022/6/6,12:00,183,185
�n����ʂ�,3_1_3,2022/6/6,13:00,167,159
�n����ʂ�,3_1_3,2022/6/6,14:00,131,129
�n����ʂ�,3_1_3,2022/6/6,15:00,143,104
�n����ʂ�,3_1_3,2022/6/6,16:00,173,110
�n����ʂ�,3_1_3,2022/6/6,17:00,234,109
�n����ʂ�,3_1_3,2022/6/6,18:00,230,88
�n����ʂ�,3_1_3,2022/6/6,19:00,88,62
�n����ʂ�,3_1_3,2022/6/6,20:00,40,46
�n����ʂ�,3_1_3,2022/6/6,21:00,17,5
�n����ʂ�,3_1_3,2022/6/6,22:00,6,7
�n����ʂ�,3_1_3,2022/6/6,23:00,9,1
�n����ʂ�,3_1_3,2022/6/7,0:00,1,1
�n����ʂ�,3_1_3,2022/6/7,1:00,1,0
�n����ʂ�,3_1_3,2022/6/7,2:00,6,1
�n����ʂ�,3_1_3,2022/6/7,3:00,2,1
�n����ʂ�,3_1_3,2022/6/7,4:00,2,5
�n����ʂ�,3_1_3,2022/6/7,5:00,24,37
�n����ʂ�,3_1_3,2022/6/7,6:00,42,64
�n����ʂ�,3_1_3,2022/6/7,7:00,75,346
�n����ʂ�,3_1_3,2022/6/7,8:00,108,288
�n����ʂ�,3_1_3,2022/6/7,9:00,129,114
�n����ʂ�,3_1_3,2022/6/7,10:00,165,151
�n����ʂ�,3_1_3,2022/6/7,11:00,128,153
�n����ʂ�,3_1_3,2022/6/7,12:00,189,176
�n����ʂ�,3_1_3,2022/6/7,13:00,156,167
�n����ʂ�,3_1_3,2022/6/7,14:00,155,138
�n����ʂ�,3_1_3,2022/6/7,15:00,133,102
�n����ʂ�,3_1_3,2022/6/7,16:00,192,111
�n����ʂ�,3_1_3,2022/6/7,17:00,271,80
�n����ʂ�,3_1_3,2022/6/7,18:00,392,80
�n����ʂ�,3_1_3,2022/6/7,19:00,89,110
�n����ʂ�,3_1_3,2022/6/7,20:00,28,14
�n����ʂ�,3_1_3,2022/6/7,21:00,25,6
�n����ʂ�,3_1_3,2022/6/7,22:00,14,1
�n����ʂ�,3_1_3,2022/6/7,23:00,7,2
�n����ʂ�,3_1_3,2022/6/8,0:00,4,1
�n����ʂ�,3_1_3,2022/6/8,1:00,0,0
�n����ʂ�,3_1_3,2022/6/8,2:00,1,0
�n����ʂ�,3_1_3,2022/6/8,3:00,1,1
�n����ʂ�,3_1_3,2022/6/8,4:00,5,4
�n����ʂ�,3_1_3,2022/6/8,5:00,36,31
�n����ʂ�,3_1_3,2022/6/8,6:00,42,52
�n����ʂ�,3_1_3,2022/6/8,7:00,74,379
�n����ʂ�,3_1_3,2022/6/8,8:00,120,316
�n����ʂ�,3_1_3,2022/6/8,9:00,140,112
�n����ʂ�,3_1_3,2022/6/8,10:00,165,186
�n����ʂ�,3_1_3,2022/6/8,11:00,163,151
�n����ʂ�,3_1_3,2022/6/8,12:00,200,173
�n����ʂ�,3_1_3,2022/6/8,13:00,190,138
�n����ʂ�,3_1_3,2022/6/8,14:00,142,119
�n����ʂ�,3_1_3,2022/6/8,15:00,200,113
�n����ʂ�,3_1_3,2022/6/8,16:00,342,120
�n����ʂ�,3_1_3,2022/6/8,17:00,259,129
�n����ʂ�,3_1_3,2022/6/8,18:00,302,133
�n����ʂ�,3_1_3,2022/6/8,19:00,88,99
�n����ʂ�,3_1_3,2022/6/8,20:00,31,5
�n����ʂ�,3_1_3,2022/6/8,21:00,24,12
�n����ʂ�,3_1_3,2022/6/8,22:00,16,4
�n����ʂ�,3_1_3,2022/6/8,23:00,5,1
�n����ʂ�,3_1_3,2022/6/9,0:00,2,1
�n����ʂ�,3_1_3,2022/6/9,1:00,1,1
�n����ʂ�,3_1_3,2022/6/9,2:00,1,0
�n����ʂ�,3_1_3,2022/6/9,3:00,2,2
�n����ʂ�,3_1_3,2022/6/9,4:00,6,4
�n����ʂ�,3_1_3,2022/6/9,5:00,31,33
�n����ʂ�,3_1_3,2022/6/9,6:00,43,63
�n����ʂ�,3_1_3,2022/6/9,7:00,130,513
�n����ʂ�,3_1_3,2022/6/9,8:00,137,352
�n����ʂ�,3_1_3,2022/6/9,9:00,192,155
�n����ʂ�,3_1_3,2022/6/9,10:00,174,167
�n����ʂ�,3_1_3,2022/6/9,11:00,147,145
�n����ʂ�,3_1_3,2022/6/9,12:00,193,174
�n����ʂ�,3_1_3,2022/6/9,13:00,149,123
�n����ʂ�,3_1_3,2022/6/9,14:00,143,81
�n����ʂ�,3_1_3,2022/6/9,15:00,154,97
�n����ʂ�,3_1_3,2022/6/9,16:00,262,113
�n����ʂ�,3_1_3,2022/6/9,17:00,278,122
�n����ʂ�,3_1_3,2022/6/9,18:00,428,135
�n����ʂ�,3_1_3,2022/6/9,19:00,95,82
�n����ʂ�,3_1_3,2022/6/9,20:00,49,46
�n����ʂ�,3_1_3,2022/6/9,21:00,31,6
�n����ʂ�,3_1_3,2022/6/9,22:00,13,2
�n����ʂ�,3_1_3,2022/6/9,23:00,9,1
�n����ʂ�,3_1_3,2022/6/10,0:00,5,1
�n����ʂ�,3_1_3,2022/6/10,1:00,6,0
�n����ʂ�,3_1_3,2022/6/10,2:00,0,0
�n����ʂ�,3_1_3,2022/6/10,3:00,2,2
�n����ʂ�,3_1_3,2022/6/10,4:00,3,1
�n����ʂ�,3_1_3,2022/6/10,5:00,26,36
�n����ʂ�,3_1_3,2022/6/10,6:00,43,59
�n����ʂ�,3_1_3,2022/6/10,7:00,98,453
�n����ʂ�,3_1_3,2022/6/10,8:00,76,272
�n����ʂ�,3_1_3,2022/6/10,9:00,164,131
�n����ʂ�,3_1_3,2022/6/10,10:00,218,171
�n����ʂ�,3_1_3,2022/6/10,11:00,206,206
�n����ʂ�,3_1_3,2022/6/10,12:00,190,230
�n����ʂ�,3_1_3,2022/6/10,13:00,215,220
�n����ʂ�,3_1_3,2022/6/10,14:00,252,276
�n����ʂ�,3_1_3,2022/6/10,15:00,337,209
�n����ʂ�,3_1_3,2022/6/10,16:00,313,144
�n����ʂ�,3_1_3,2022/6/10,17:00,284,119
�n����ʂ�,3_1_3,2022/6/10,18:00,242,119
�n����ʂ�,3_1_3,2022/6/10,19:00,101,97
�n����ʂ�,3_1_3,2022/6/10,20:00,91,65
�n����ʂ�,3_1_3,2022/6/10,21:00,36,8
�n����ʂ�,3_1_3,2022/6/10,22:00,26,4
�n����ʂ�,3_1_3,2022/6/10,23:00,16,2
�n����ʂ�,3_1_3,2022/6/11,0:00,9,1
�n����ʂ�,3_1_3,2022/6/11,1:00,4,1
�n����ʂ�,3_1_3,2022/6/11,2:00,1,1
�n����ʂ�,3_1_3,2022/6/11,3:00,5,2
�n����ʂ�,3_1_3,2022/6/11,4:00,4,2
�n����ʂ�,3_1_3,2022/6/11,5:00,28,28
�n����ʂ�,3_1_3,2022/6/11,6:00,34,30
�n����ʂ�,3_1_3,2022/6/11,7:00,40,56
�n����ʂ�,3_1_3,2022/6/11,8:00,61,87
�n����ʂ�,3_1_3,2022/6/11,9:00,125,131
�n����ʂ�,3_1_3,2022/6/11,10:00,214,189
�n����ʂ�,3_1_3,2022/6/11,11:00,193,251
�n����ʂ�,3_1_3,2022/6/11,12:00,277,343
�n����ʂ�,3_1_3,2022/6/11,13:00,409,332
�n����ʂ�,3_1_3,2022/6/11,14:00,334,306
�n����ʂ�,3_1_3,2022/6/11,15:00,276,283
�n����ʂ�,3_1_3,2022/6/11,16:00,242,251
�n����ʂ�,3_1_3,2022/6/11,17:00,221,204
�n����ʂ�,3_1_3,2022/6/11,18:00,137,163
�n����ʂ�,3_1_3,2022/6/11,19:00,88,115
�n����ʂ�,3_1_3,2022/6/11,20:00,51,72
�n����ʂ�,3_1_3,2022/6/11,21:00,68,60
�n����ʂ�,3_1_3,2022/6/11,22:00,44,15
�n����ʂ�,3_1_3,2022/6/11,23:00,11,1
�n����ʂ�,3_1_3,2022/6/12,0:00,15,2
�n����ʂ�,3_1_3,2022/6/12,1:00,0,0
�n����ʂ�,3_1_3,2022/6/12,2:00,4,0
�n����ʂ�,3_1_3,2022/6/12,3:00,5,1
�n����ʂ�,3_1_3,2022/6/12,4:00,5,2
�n����ʂ�,3_1_3,2022/6/12,5:00,17,32
�n����ʂ�,3_1_3,2022/6/12,6:00,1,7
�n����ʂ�,3_1_3,2022/6/12,7:00,4,6
�n����ʂ�,3_1_3,2022/6/12,8:00,75,104
�n����ʂ�,3_1_3,2022/6/12,9:00,129,186
�n����ʂ�,3_1_3,2022/6/12,10:00,247,278
�n����ʂ�,3_1_3,2022/6/12,11:00,204,264
�n����ʂ�,3_1_3,2022/6/12,12:00,0,0
�n����ʂ�,3_1_3,2022/6/12,13:00,0,0
�n����ʂ�,3_1_3,2022/6/12,14:00,0,0
�n����ʂ�,3_1_3,2022/6/12,15:00,0,0
�n����ʂ�,3_1_3,2022/6/12,16:00,0,0
�n����ʂ�,3_1_3,2022/6/12,17:00,0,0
�n����ʂ�,3_1_3,2022/6/12,18:00,0,0
�n����ʂ�,3_1_3,2022/6/12,19:00,0,0
�n����ʂ�,3_1_3,2022/6/12,20:00,0,0
�n����ʂ�,3_1_3,2022/6/12,21:00,0,0
�n����ʂ�,3_1_3,2022/6/12,22:00,0,0
�n����ʂ�,3_1_3,2022/6/12,23:00,0,0
�n����ʂ�,3_1_3,2022/6/13,0:00,0,0
�n����ʂ�,3_1_3,2022/6/13,1:00,0,0
�n����ʂ�,3_1_3,2022/6/13,2:00,0,0
�n����ʂ�,3_1_3,2022/6/13,3:00,0,0
�n����ʂ�,3_1_3,2022/6/13,4:00,0,0
�n����ʂ�,3_1_3,2022/6/13,5:00,0,0
�n����ʂ�,3_1_3,2022/6/13,6:00,0,0
�n����ʂ�,3_1_3,2022/6/13,7:00,0,0
�n����ʂ�,3_1_3,2022/6/13,8:00,0,0
�n����ʂ�,3_1_3,2022/6/13,9:00,0,0
�n����ʂ�,3_1_3,2022/6/13,10:00,0,0
�n����ʂ�,3_1_3,2022/6/13,11:00,0,0
�n����ʂ�,3_1_3,2022/6/13,12:00,0,0
�n����ʂ�,3_1_3,2022/6/13,13:00,0,0
�n����ʂ�,3_1_3,2022/6/13,14:00,0,0
�n����ʂ�,3_1_3,2022/6/13,15:00,0,0
�n����ʂ�,3_1_3,2022/6/13,16:00,0,0
�n����ʂ�,3_1_3,2022/6/13,17:00,0,0
�n����ʂ�,3_1_3,2022/6/13,18:00,0,0
�n����ʂ�,3_1_3,2022/6/13,19:00,0,0
�n����ʂ�,3_1_3,2022/6/13,20:00,0,0
�n����ʂ�,3_1_3,2022/6/13,21:00,0,0
�n����ʂ�,3_1_3,2022/6/13,22:00,0,0
�n����ʂ�,3_1_3,2022/6/13,23:00,0,0
�n����ʂ�,3_1_3,2022/6/14,0:00,0,0
�n����ʂ�,3_1_3,2022/6/14,1:00,0,0
�n����ʂ�,3_1_3,2022/6/14,2:00,0,0
�n����ʂ�,3_1_3,2022/6/14,3:00,0,0
�n����ʂ�,3_1_3,2022/6/14,4:00,0,0
�n����ʂ�,3_1_3,2022/6/14,5:00,0,0
�n����ʂ�,3_1_3,2022/6/14,6:00,0,0
�n����ʂ�,3_1_3,2022/6/14,7:00,0,0
�n����ʂ�,3_1_3,2022/6/14,8:00,0,0
�n����ʂ�,3_1_3,2022/6/14,9:00,0,0
�n����ʂ�,3_1_3,2022/6/14,10:00,0,0
�n����ʂ�,3_1_3,2022/6/14,11:00,0,0
�n����ʂ�,3_1_3,2022/6/14,12:00,0,0
�n����ʂ�,3_1_3,2022/6/14,13:00,0,0
�n����ʂ�,3_1_3,2022/6/14,14:00,0,0
�n����ʂ�,3_1_3,2022/6/14,15:00,0,0
�n����ʂ�,3_1_3,2022/6/14,16:00,0,0
�n����ʂ�,3_1_3,2022/6/14,17:00,0,0
�n����ʂ�,3_1_3,2022/6/14,18:00,0,0
�n����ʂ�,3_1_3,2022/6/14,19:00,0,0
�n����ʂ�,3_1_3,2022/6/14,20:00,0,0
�n����ʂ�,3_1_3,2022/6/14,21:00,0,0
�n����ʂ�,3_1_3,2022/6/14,22:00,0,0
�n����ʂ�,3_1_3,2022/6/14,23:00,0,0
�n����ʂ�,3_1_3,2022/6/15,0:00,0,0
�n����ʂ�,3_1_3,2022/6/15,1:00,0,0
�n����ʂ�,3_1_3,2022/6/15,2:00,0,0
�n����ʂ�,3_1_3,2022/6/15,3:00,0,0
�n����ʂ�,3_1_3,2022/6/15,4:00,0,0
�n����ʂ�,3_1_3,2022/6/15,5:00,0,0
�n����ʂ�,3_1_3,2022/6/15,6:00,0,0
�n����ʂ�,3_1_3,2022/6/15,7:00,0,0
�n����ʂ�,3_1_3,2022/6/15,8:00,0,0
�n����ʂ�,3_1_3,2022/6/15,9:00,0,0
�n����ʂ�,3_1_3,2022/6/15,10:00,0,0
�n����ʂ�,3_1_3,2022/6/15,11:00,0,0
�n����ʂ�,3_1_3,2022/6/15,12:00,174,158
�n����ʂ�,3_1_3,2022/6/15,13:00,187,161
�n����ʂ�,3_1_3,2022/6/15,14:00,153,143
�n����ʂ�,3_1_3,2022/6/15,15:00,206,115
�n����ʂ�,3_1_3,2022/6/15,16:00,392,129
�n����ʂ�,3_1_3,2022/6/15,17:00,208,90
�n����ʂ�,3_1_3,2022/6/15,18:00,143,139
�n����ʂ�,3_1_3,2022/6/15,19:00,78,85
�n����ʂ�,3_1_3,2022/6/15,20:00,63,57
�n����ʂ�,3_1_3,2022/6/15,21:00,56,34
�n����ʂ�,3_1_3,2022/6/15,22:00,14,2
�n����ʂ�,3_1_3,2022/6/15,23:00,5,1
�n����ʂ�,3_1_3,2022/6/16,0:00,4,1
�n����ʂ�,3_1_3,2022/6/16,1:00,3,1
�n����ʂ�,3_1_3,2022/6/16,2:00,0,1
�n����ʂ�,3_1_3,2022/6/16,3:00,2,1
�n����ʂ�,3_1_3,2022/6/16,4:00,4,1
�n����ʂ�,3_1_3,2022/6/16,5:00,25,33
�n����ʂ�,3_1_3,2022/6/16,6:00,40,53
�n����ʂ�,3_1_3,2022/6/16,7:00,73,328
�n����ʂ�,3_1_3,2022/6/16,8:00,103,314
�n����ʂ�,3_1_3,2022/6/16,9:00,140,126
�n����ʂ�,3_1_3,2022/6/16,10:00,152,147
�n����ʂ�,3_1_3,2022/6/16,11:00,166,159
�n����ʂ�,3_1_3,2022/6/16,12:00,184,157
�n����ʂ�,3_1_3,2022/6/16,13:00,176,150
�n����ʂ�,3_1_3,2022/6/16,14:00,187,147
�n����ʂ�,3_1_3,2022/6/16,15:00,184,125
�n����ʂ�,3_1_3,2022/6/16,16:00,288,113
�n����ʂ�,3_1_3,2022/6/16,17:00,274,117
�n����ʂ�,3_1_3,2022/6/16,18:00,355,92
�n����ʂ�,3_1_3,2022/6/16,19:00,86,87
�n����ʂ�,3_1_3,2022/6/16,20:00,63,56
�n����ʂ�,3_1_3,2022/6/16,21:00,63,25
�n����ʂ�,3_1_3,2022/6/16,22:00,18,0
�n����ʂ�,3_1_3,2022/6/16,23:00,7,3
�n����ʂ�,3_1_3,2022/6/17,0:00,5,0
�n����ʂ�,3_1_3,2022/6/17,1:00,2,0
�n����ʂ�,3_1_3,2022/6/17,2:00,1,1
�n����ʂ�,3_1_3,2022/6/17,3:00,1,1
�n����ʂ�,3_1_3,2022/6/17,4:00,5,5
�n����ʂ�,3_1_3,2022/6/17,5:00,30,25
�n����ʂ�,3_1_3,2022/6/17,6:00,41,53
�n����ʂ�,3_1_3,2022/6/17,7:00,73,379
�n����ʂ�,3_1_3,2022/6/17,8:00,103,307
�n����ʂ�,3_1_3,2022/6/17,9:00,150,151
�n����ʂ�,3_1_3,2022/6/17,10:00,179,203
�n����ʂ�,3_1_3,2022/6/17,11:00,211,171
�n����ʂ�,3_1_3,2022/6/17,12:00,249,257
�n����ʂ�,3_1_3,2022/6/17,13:00,234,193
�n����ʂ�,3_1_3,2022/6/17,14:00,261,178
�n����ʂ�,3_1_3,2022/6/17,15:00,329,190
�n����ʂ�,3_1_3,2022/6/17,16:00,295,169
�n����ʂ�,3_1_3,2022/6/17,17:00,331,154
�n����ʂ�,3_1_3,2022/6/17,18:00,357,179
�n����ʂ�,3_1_3,2022/6/17,19:00,119,113
�n����ʂ�,3_1_3,2022/6/17,20:00,68,59
�n����ʂ�,3_1_3,2022/6/17,21:00,44,13
�n����ʂ�,3_1_3,2022/6/17,22:00,24,12
�n����ʂ�,3_1_3,2022/6/17,23:00,17,5
�n����ʂ�,3_1_3,2022/6/18,0:00,9,3
�n����ʂ�,3_1_3,2022/6/18,1:00,8,1
�n����ʂ�,3_1_3,2022/6/18,2:00,6,0
�n����ʂ�,3_1_3,2022/6/18,3:00,5,2
�n����ʂ�,3_1_3,2022/6/18,4:00,2,4
�n����ʂ�,3_1_3,2022/6/18,5:00,24,29
�n����ʂ�,3_1_3,2022/6/18,6:00,40,55
�n����ʂ�,3_1_3,2022/6/18,7:00,77,86
�n����ʂ�,3_1_3,2022/6/18,8:00,102,117
�n����ʂ�,3_1_3,2022/6/18,9:00,171,137
�n����ʂ�,3_1_3,2022/6/18,10:00,211,301
�n����ʂ�,3_1_3,2022/6/18,11:00,266,285
�n����ʂ�,3_1_3,2022/6/18,12:00,399,398
�n����ʂ�,3_1_3,2022/6/18,13:00,352,398
�n����ʂ�,3_1_3,2022/6/18,14:00,380,386
�n����ʂ�,3_1_3,2022/6/18,15:00,388,314
�n����ʂ�,3_1_3,2022/6/18,16:00,269,215
�n����ʂ�,3_1_3,2022/6/18,17:00,260,219
�n����ʂ�,3_1_3,2022/6/18,18:00,179,176
�n����ʂ�,3_1_3,2022/6/18,19:00,147,121
�n����ʂ�,3_1_3,2022/6/18,20:00,119,98
�n����ʂ�,3_1_3,2022/6/18,21:00,33,6
�n����ʂ�,3_1_3,2022/6/18,22:00,23,4
�n����ʂ�,3_1_3,2022/6/18,23:00,15,5
�n����ʂ�,3_1_3,2022/6/19,0:00,13,2
�n����ʂ�,3_1_3,2022/6/19,1:00,3,0
�n����ʂ�,3_1_3,2022/6/19,2:00,5,1
�n����ʂ�,3_1_3,2022/6/19,3:00,3,2
�n����ʂ�,3_1_3,2022/6/19,4:00,8,9
�n����ʂ�,3_1_3,2022/6/19,5:00,17,26
�n����ʂ�,3_1_3,2022/6/19,6:00,36,29
�n����ʂ�,3_1_3,2022/6/19,7:00,45,49
�n����ʂ�,3_1_3,2022/6/19,8:00,80,84
�n����ʂ�,3_1_3,2022/6/19,9:00,150,179
�n����ʂ�,3_1_3,2022/6/19,10:00,266,312
�n����ʂ�,3_1_3,2022/6/19,11:00,398,381
�n����ʂ�,3_1_3,2022/6/19,12:00,503,447
�n����ʂ�,3_1_3,2022/6/19,13:00,514,466
�n����ʂ�,3_1_3,2022/6/19,14:00,470,458
�n����ʂ�,3_1_3,2022/6/19,15:00,374,346
�n����ʂ�,3_1_3,2022/6/19,16:00,276,230
�n����ʂ�,3_1_3,2022/6/19,17:00,187,161
�n����ʂ�,3_1_3,2022/6/19,18:00,123,100
�n����ʂ�,3_1_3,2022/6/19,19:00,96,72
�n����ʂ�,3_1_3,2022/6/19,20:00,55,41
�n����ʂ�,3_1_3,2022/6/19,21:00,12,1
�n����ʂ�,3_1_3,2022/6/19,22:00,13,3
�n����ʂ�,3_1_3,2022/6/19,23:00,3,0
�n����ʂ�,3_1_3,2022/6/20,0:00,1,0
�n����ʂ�,3_1_3,2022/6/20,1:00,0,1
�n����ʂ�,3_1_3,2022/6/20,2:00,3,1
�n����ʂ�,3_1_3,2022/6/20,3:00,1,2
�n����ʂ�,3_1_3,2022/6/20,4:00,3,1
�n����ʂ�,3_1_3,2022/6/20,5:00,21,31
�n����ʂ�,3_1_3,2022/6/20,6:00,37,46
�n����ʂ�,3_1_3,2022/6/20,7:00,80,315
�n����ʂ�,3_1_3,2022/6/20,8:00,94,313
�n����ʂ�,3_1_3,2022/6/20,9:00,144,139
�n����ʂ�,3_1_3,2022/6/20,10:00,164,166
�n����ʂ�,3_1_3,2022/6/20,11:00,220,181
�n����ʂ�,3_1_3,2022/6/20,12:00,249,205
�n����ʂ�,3_1_3,2022/6/20,13:00,211,177
�n����ʂ�,3_1_3,2022/6/20,14:00,207,139
�n����ʂ�,3_1_3,2022/6/20,15:00,291,136
�n����ʂ�,3_1_3,2022/6/20,16:00,215,135
�n����ʂ�,3_1_3,2022/6/20,17:00,283,107
�n����ʂ�,3_1_3,2022/6/20,18:00,331,89
�n����ʂ�,3_1_3,2022/6/20,19:00,93,77
�n����ʂ�,3_1_3,2022/6/20,20:00,89,68
�n����ʂ�,3_1_3,2022/6/20,21:00,23,26
�n����ʂ�,3_1_3,2022/6/20,22:00,15,0
�n����ʂ�,3_1_3,2022/6/20,23:00,6,1
�n����ʂ�,3_1_3,2022/6/21,0:00,7,0
�n����ʂ�,3_1_3,2022/6/21,1:00,5,1
�n����ʂ�,3_1_3,2022/6/21,2:00,1,1
�n����ʂ�,3_1_3,2022/6/21,3:00,1,1
�n����ʂ�,3_1_3,2022/6/21,4:00,3,4
�n����ʂ�,3_1_3,2022/6/21,5:00,25,24
�n����ʂ�,3_1_3,2022/6/21,6:00,40,45
�n����ʂ�,3_1_3,2022/6/21,7:00,60,173
�n����ʂ�,3_1_3,2022/6/21,8:00,66,162
�n����ʂ�,3_1_3,2022/6/21,9:00,82,86
�n����ʂ�,3_1_3,2022/6/21,10:00,115,88
�n����ʂ�,3_1_3,2022/6/21,11:00,106,130
�n����ʂ�,3_1_3,2022/6/21,12:00,157,138
�n����ʂ�,3_1_3,2022/6/21,13:00,90,111
�n����ʂ�,3_1_3,2022/6/21,14:00,73,82
�n����ʂ�,3_1_3,2022/6/21,15:00,97,71
�n����ʂ�,3_1_3,2022/6/21,16:00,161,87
�n����ʂ�,3_1_3,2022/6/21,17:00,208,93
�n����ʂ�,3_1_3,2022/6/21,18:00,149,72
�n����ʂ�,3_1_3,2022/6/21,19:00,60,66
�n����ʂ�,3_1_3,2022/6/21,20:00,18,14
�n����ʂ�,3_1_3,2022/6/21,21:00,28,19
�n����ʂ�,3_1_3,2022/6/21,22:00,12,4
�n����ʂ�,3_1_3,2022/6/21,23:00,2,3
�n����ʂ�,3_1_3,2022/6/22,0:00,6,2
�n����ʂ�,3_1_3,2022/6/22,1:00,5,0
�n����ʂ�,3_1_3,2022/6/22,2:00,0,1
�n����ʂ�,3_1_3,2022/6/22,3:00,0,6
�n����ʂ�,3_1_3,2022/6/22,4:00,3,3
�n����ʂ�,3_1_3,2022/6/22,5:00,36,33
�n����ʂ�,3_1_3,2022/6/22,6:00,45,66
�n����ʂ�,3_1_3,2022/6/22,7:00,62,135
�n����ʂ�,3_1_3,2022/6/22,8:00,93,191
�n����ʂ�,3_1_3,2022/6/22,9:00,117,123
�n����ʂ�,3_1_3,2022/6/22,10:00,160,161
�n����ʂ�,3_1_3,2022/6/22,11:00,169,179
�n����ʂ�,3_1_3,2022/6/22,12:00,159,135
�n����ʂ�,3_1_3,2022/6/22,13:00,156,125
�n����ʂ�,3_1_3,2022/6/22,14:00,137,118
�n����ʂ�,3_1_3,2022/6/22,15:00,163,100
�n����ʂ�,3_1_3,2022/6/22,16:00,222,103
�n����ʂ�,3_1_3,2022/6/22,17:00,225,112
�n����ʂ�,3_1_3,2022/6/22,18:00,123,109
�n����ʂ�,3_1_3,2022/6/22,19:00,74,89
�n����ʂ�,3_1_3,2022/6/22,20:00,67,60
�n����ʂ�,3_1_3,2022/6/22,21:00,56,27
�n����ʂ�,3_1_3,2022/6/22,22:00,33,13
�n����ʂ�,3_1_3,2022/6/22,23:00,8,2
�n����ʂ�,3_1_3,2022/6/23,0:00,2,1
�n����ʂ�,3_1_3,2022/6/23,1:00,4,0
�n����ʂ�,3_1_3,2022/6/23,2:00,1,1
�n����ʂ�,3_1_3,2022/6/23,3:00,1,1
�n����ʂ�,3_1_3,2022/6/23,4:00,5,3
�n����ʂ�,3_1_3,2022/6/23,5:00,25,36
�n����ʂ�,3_1_3,2022/6/23,6:00,30,71
�n����ʂ�,3_1_3,2022/6/23,7:00,93,422
�n����ʂ�,3_1_3,2022/6/23,8:00,96,350
�n����ʂ�,3_1_3,2022/6/23,9:00,130,134
�n����ʂ�,3_1_3,2022/6/23,10:00,151,158
�n����ʂ�,3_1_3,2022/6/23,11:00,160,118
�n����ʂ�,3_1_3,2022/6/23,12:00,137,153
�n����ʂ�,3_1_3,2022/6/23,13:00,147,133
�n����ʂ�,3_1_3,2022/6/23,14:00,139,87
�n����ʂ�,3_1_3,2022/6/23,15:00,131,108
�n����ʂ�,3_1_3,2022/6/23,16:00,387,113
�n����ʂ�,3_1_3,2022/6/23,17:00,315,135
�n����ʂ�,3_1_3,2022/6/23,18:00,207,110
�n����ʂ�,3_1_3,2022/6/23,19:00,104,89
�n����ʂ�,3_1_3,2022/6/23,20:00,56,64
�n����ʂ�,3_1_3,2022/6/23,21:00,110,36
�n����ʂ�,3_1_3,2022/6/23,22:00,31,35
�n����ʂ�,3_1_3,2022/6/23,23:00,19,4
�n����ʂ�,3_1_3,2022/6/24,0:00,14,6
�n����ʂ�,3_1_3,2022/6/24,1:00,6,4
�n����ʂ�,3_1_3,2022/6/24,2:00,13,7
�n����ʂ�,3_1_3,2022/6/24,3:00,9,12
�n����ʂ�,3_1_3,2022/6/24,4:00,4,11
�n����ʂ�,3_1_3,2022/6/24,5:00,31,37
�n����ʂ�,3_1_3,2022/6/24,6:00,41,99
�n����ʂ�,3_1_3,2022/6/24,7:00,87,412
�n����ʂ�,3_1_3,2022/6/24,8:00,119,323
�n����ʂ�,3_1_3,2022/6/24,9:00,150,164
�n����ʂ�,3_1_3,2022/6/24,10:00,215,180
�n����ʂ�,3_1_3,2022/6/24,11:00,206,160
�n����ʂ�,3_1_3,2022/6/24,12:00,196,216
�n����ʂ�,3_1_3,2022/6/24,13:00,199,145
�n����ʂ�,3_1_3,2022/6/24,14:00,151,157
�n����ʂ�,3_1_3,2022/6/24,15:00,355,114
�n����ʂ�,3_1_3,2022/6/24,16:00,289,123
�n����ʂ�,3_1_3,2022/6/24,17:00,268,155
�n����ʂ�,3_1_3,2022/6/24,18:00,215,140
�n����ʂ�,3_1_3,2022/6/24,19:00,122,107
�n����ʂ�,3_1_3,2022/6/24,20:00,63,102
�n����ʂ�,3_1_3,2022/6/24,21:00,111,53
�n����ʂ�,3_1_3,2022/6/24,22:00,41,23
�n����ʂ�,3_1_3,2022/6/24,23:00,27,7
�n����ʂ�,3_1_3,2022/6/25,0:00,6,2
�n����ʂ�,3_1_3,2022/6/25,1:00,6,1
�n����ʂ�,3_1_3,2022/6/25,2:00,6,1
�n����ʂ�,3_1_3,2022/6/25,3:00,4,2
�n����ʂ�,3_1_3,2022/6/25,4:00,4,4
�n����ʂ�,3_1_3,2022/6/25,5:00,22,25
�n����ʂ�,3_1_3,2022/6/25,6:00,52,41
�n����ʂ�,3_1_3,2022/6/25,7:00,39,51
�n����ʂ�,3_1_3,2022/6/25,8:00,80,87
�n����ʂ�,3_1_3,2022/6/25,9:00,131,135
�n����ʂ�,3_1_3,2022/6/25,10:00,179,239
�n����ʂ�,3_1_3,2022/6/25,11:00,259,310
�n����ʂ�,3_1_3,2022/6/25,12:00,381,424
�n����ʂ�,3_1_3,2022/6/25,13:00,467,415
�n����ʂ�,3_1_3,2022/6/25,14:00,345,338
�n����ʂ�,3_1_3,2022/6/25,15:00,385,290
�n����ʂ�,3_1_3,2022/6/25,16:00,219,254
�n����ʂ�,3_1_3,2022/6/25,17:00,232,190
�n����ʂ�,3_1_3,2022/6/25,18:00,219,210
�n����ʂ�,3_1_3,2022/6/25,19:00,155,131
�n����ʂ�,3_1_3,2022/6/25,20:00,114,78
�n����ʂ�,3_1_3,2022/6/25,21:00,76,54
�n����ʂ�,3_1_3,2022/6/25,22:00,33,35
�n����ʂ�,3_1_3,2022/6/25,23:00,27,9
�n����ʂ�,3_1_3,2022/6/26,0:00,10,2
�n����ʂ�,3_1_3,2022/6/26,1:00,4,1
�n����ʂ�,3_1_3,2022/6/26,2:00,3,1
�n����ʂ�,3_1_3,2022/6/26,3:00,3,1
�n����ʂ�,3_1_3,2022/6/26,4:00,3,6
�n����ʂ�,3_1_3,2022/6/26,5:00,31,29
�n����ʂ�,3_1_3,2022/6/26,6:00,29,36
�n����ʂ�,3_1_3,2022/6/26,7:00,40,40
�n����ʂ�,3_1_3,2022/6/26,8:00,75,58
�n����ʂ�,3_1_3,2022/6/26,9:00,111,135
�n����ʂ�,3_1_3,2022/6/26,10:00,236,230
�n����ʂ�,3_1_3,2022/6/26,11:00,316,309
�n����ʂ�,3_1_3,2022/6/26,12:00,439,454
�n����ʂ�,3_1_3,2022/6/26,13:00,486,420
�n����ʂ�,3_1_3,2022/6/26,14:00,470,356
�n����ʂ�,3_1_3,2022/6/26,15:00,353,239
�n����ʂ�,3_1_3,2022/6/26,16:00,263,221
�n����ʂ�,3_1_3,2022/6/26,17:00,193,126
�n����ʂ�,3_1_3,2022/6/26,18:00,126,110
�n����ʂ�,3_1_3,2022/6/26,19:00,85,57
�n����ʂ�,3_1_3,2022/6/26,20:00,45,46
�n����ʂ�,3_1_3,2022/6/26,21:00,48,21
�n����ʂ�,3_1_3,2022/6/26,22:00,4,1
�n����ʂ�,3_1_3,2022/6/26,23:00,6,3
�n����ʂ�,3_1_3,2022/6/27,0:00,0,1
�n����ʂ�,3_1_3,2022/6/27,1:00,3,1
�n����ʂ�,3_1_3,2022/6/27,2:00,2,2
�n����ʂ�,3_1_3,2022/6/27,3:00,1,1
�n����ʂ�,3_1_3,2022/6/27,4:00,3,5
�n����ʂ�,3_1_3,2022/6/27,5:00,22,46
�n����ʂ�,3_1_3,2022/6/27,6:00,36,58
�n����ʂ�,3_1_3,2022/6/27,7:00,87,435
�n����ʂ�,3_1_3,2022/6/27,8:00,105,346
�n����ʂ�,3_1_3,2022/6/27,9:00,159,146
�n����ʂ�,3_1_3,2022/6/27,10:00,169,192
�n����ʂ�,3_1_3,2022/6/27,11:00,196,159
�n����ʂ�,3_1_3,2022/6/27,12:00,185,180
�n����ʂ�,3_1_3,2022/6/27,13:00,186,173
�n����ʂ�,3_1_3,2022/6/27,14:00,159,139
�n����ʂ�,3_1_3,2022/6/27,15:00,363,102
�n����ʂ�,3_1_3,2022/6/27,16:00,291,87